Hourly Data Report for October 20, 2014

All times are specified in Local Standard Time (LST). Add 1 hour to adjust for Daylight Saving Time where and when it is observed.

ARVIAT A
NUNAVUT

61°05'38.000" N
94°04'18.000" W
10.40 m
2300427
71174
YEK

Download Data

Hourly Data (October 2014)
Hourly Data Report for October 20, 2014
Temp Definition
°C
Dew Point Temp Definition
°C
Rel Hum Definition
%
Wind Dir Definition
10's deg

Wind Spd Definition
km/h
Visibility Definition
km
Stn Press Definition
kPa
Hmdx Definition


Wind Chill Definition


Weather Definition


TIME
00:00 Legend Double Dagger -0.7 -1.0 98 33 17 16.1 101.27   -6 LegendNANA
01:00 Legend Double Dagger -1.2 -2.0 94 34 24 16.1 101.32   -7 LegendNANA
02:00 Legend Double Dagger -1.6 -2.3 95 33 18 16.1 101.43   -7 LegendNANA
03:00 Legend Double Dagger -1.9 -2.5 96 33 18 16.1 101.48   -7 LegendNANA
04:00 Legend Double Dagger -2.1 -2.9 94 35 18 16.1 101.52   -8 LegendNANA
05:00 Legend Double Dagger -2.5 -3.5 93 35 21 16.1 101.59   -9 LegendNANA
06:00 Legend Double Dagger -5.9 -6.7 94 35 24 16.1 101.68   -13 LegendNANA
07:00 Legend Double Dagger -6.7 -7.3 96 35 17 16.1 101.71   -13 LegendNANA
08:00 Legend Double Dagger -9.9 -10.3 97 34 11 16.1 101.73   -15 LegendNANA
09:00 Legend Double Dagger -10.1 -10.5 97 33 17 14.5 101.78   -17 LegendNANA
10:00 Legend Double Dagger -8.8 -9.3 96 34 13 14.5 101.78   -15 LegendNANA
11:00 Legend Double Dagger -8.2 -8.9 95 34 11 16.1 101.82   -13 LegendNANA
12:00 Legend Double Dagger -7.4 -8.2 94 34 11 16.1 101.81   -12 LegendNANA
13:00 Legend Double Dagger -7.0 -8.3 91 32 11 16.1 101.81   -12 LegendNANA
14:00 Legend Double Dagger -6.2 -7.6 90 33 9 16.1 101.81   -10 LegendNANA
15:00 Legend Double Dagger -5.5 -6.9 90   0 16.1 101.77     LegendNANA
16:00 Legend Double Dagger -5.4 -6.4 93 7 4 16.1 101.74   -7 LegendNANA
17:00 Legend Double Dagger -4.7 -5.0 98 14 5 16.1 101.69   -7 LegendNANA
18:00 Legend Double Dagger -2.7 -3.3 96 15 21 16.1 101.64   -9 LegendNANA
19:00 Legend Double Dagger -2.1 -2.2 99 15 22 16.1 101.62   -8 LegendNANA
20:00 Legend Double Dagger -0.8 -0.9 99 15 26 16.1 101.52   -7 LegendNANA
21:00 Legend Double Dagger -0.6 -0.6 100 17 28 2.0 101.43   -7 Freezing Rain,Snow
22:00 Legend Double Dagger 0.0 0.0 100 16 35 9.7 101.30   -7 Fog
23:00 Legend Double Dagger 0.3 0.3 100 18 43 6.4 101.18     Rain,Fog

Notes on Data Quality.

Legend

  • E = Estimated
  • M = Missing
  • NA = Not Available
  • ‡ = Partner data that is not subject to review by the National Climate Archives
Date modified: